Morelia, Mexico

2:52 AM CST on January 21, 2018 (GMT -0600)
Gen Francisco J Mujica International

Weather History for MMMM - May, 2013

Change the Weather History Date:

Saturday, May 18, 2013

  Actual Average Record
Temperature  
Mean Temperature 74 °F -  
Max Temperature 94 °F 82 °F 96 °F (2017)
Min Temperature 55 °F 57 °F 51 °F (1999)
Cooling Degree Days 10    
Growing Degree Days 24 (Base 50)    
Moisture  
Dew Point 50 °F    
Average Humidity 43    
Maximum Humidity 72    
Minimum Humidity 16    
Precipitation  
Precipitation 0.00 in 0.13 in - ()
Sea Level Pressure  
Sea Level Pressure 30.02 in    
Wind  
Wind Speed 3 mph ()    
Max Wind Speed 13 mph    
Max Gust Speed -    
Visibility 6.3 miles    
Events      
Averages and records for this station are not official NWS values.
T = Trace of Precipitation, MM = Missing Value Source: Averaged Metar Reports

Daily Weather History Graph

Daily Weather History Graph

Search for Another Location

Airport or City:

Trip Planner

Search our weather history database for the weather conditions in past years. The results will help you decide how hot, cold, wet, or windy it might be!

Date:

Astronomy

May. 18, 2013 Rise Set
Actual Time 7:07 AM CDT 8:14 PM CDT
Civil Twilight 6:43 AM CDT 8:37 PM CDT
Nautical Twilight 6:15 AM CDT 9:06 PM CDT
Astronomical Twilight 5:46 AM CDT 9:35 PM CDT
Moon 2:10 PM CDT (5/18) 2:05 AM CDT (5/18)
Length of Visible Light 13h 54m
Length of Day
13h 07m
First Quarter, 55% of the Moon is Illuminated
May 18
First Quarter
May 24
Full
May 31
Last Quarter
Jun 8
New
Jun 16
First Quarter

Hourly Weather History & Observations

Time (CDT) Temp. Dew Point Humidity Pressure Visibility Wind Dir Wind Speed Gust Speed Precip Events Conditions
12:47 AM 69.8 °F 48.2 °F 46% 29.73 in 7.0 mi East 6.9 mph - N/A   Mostly Cloudy
12:55 AM 70 °F 51 °F 39% 29.70 in 5 mi ENE 4.5 mph - -   Partly Cloudy
1:43 AM 68.0 °F 48.2 °F 49% 30.25 in 7.0 mi NNW 5.8 mph - N/A   Mostly Cloudy
2:45 AM 62.6 °F 50.0 °F 63% 30.24 in 7.0 mi South 4.6 mph - N/A   Scattered Clouds
3:48 AM 62.6 °F 50.0 °F 63% 29.74 in 7.0 mi SW 3.5 mph - N/A   Scattered Clouds
3:55 AM 67 °F 52 °F 48% 29.74 in 5 mi North 2.2 mph - -   Partly Cloudy
4:46 AM 60.8 °F 48.2 °F 63% 30.22 in 7.0 mi West 3.5 mph - N/A   Scattered Clouds
5:49 AM 57.2 °F 48.2 °F 72% 30.22 in 7.0 mi Calm Calm - N/A   Scattered Clouds
6:45 AM 57.2 °F 48.2 °F 72% 29.77 in 7.0 mi Calm Calm - N/A   Scattered Clouds
7:42 AM 55.4 °F 46.4 °F 72% 30.24 in 6.0 mi Calm Calm - N/A   Clear
8:14 AM 60.8 °F 48.2 °F 63% 30.25 in 6.0 mi Calm Calm - N/A   Clear
8:42 AM 64.4 °F 50.0 °F 59% 30.26 in 6.0 mi Variable 3.5 mph - N/A   Clear
9:11 AM 68.0 °F 50.0 °F 52% 30.26 in 6.0 mi Variable 2.3 mph - N/A   Clear
9:47 AM 71.6 °F 50.0 °F 46% 29.79 in 6.0 mi Variable 2.3 mph - N/A   Clear
9:50 AM 72 °F 57 °F 49% 29.88 in 7 mi WNW 2.2 mph - -   Partly Cloudy
10:24 AM 75.2 °F 51.8 °F 44% 30.27 in 6.0 mi Variable 3.5 mph - N/A   Clear
10:41 AM 75.2 °F 51.8 °F 44% 30.27 in 6.0 mi Calm Calm - N/A   Clear
11:23 AM 78.8 °F 51.8 °F 39% 30.26 in 6.0 mi South 4.6 mph - N/A   Clear
11:44 AM 78.8 °F 50.0 °F 36% 30.26 in 6.0 mi Calm Calm - N/A   Clear
12:28 PM 82.4 °F 48.2 °F 30% 30.24 in 6.0 mi NNW 4.6 mph - N/A   Clear
12:46 PM 82.4 °F 50.0 °F 32% 29.71 in 6.0 mi Calm Calm - N/A   Clear
12:50 PM 88 °F 55 °F 22% 29.81 in 7 mi West 2.2 mph - -   Partly Cloudy
1:41 PM 86.0 °F 48.2 °F 27% 30.21 in 7.0 mi Calm Calm - N/A   Scattered Clouds
2:40 PM 87.8 °F 46.4 °F 24% 30.17 in 7.0 mi West 11.5 mph - N/A   Scattered Clouds
3:45 PM 92 °F 52 °F 16% 29.65 in 7 mi SE 4.5 mph - -   Partly Cloudy
3:48 PM 87.8 °F 44.6 °F 22% 29.64 in 6.0 mi West 3.5 mph - N/A   Mostly Cloudy
4:51 PM 86.0 °F 48.2 °F 27% 30.11 in 6.0 mi SSE 9.2 mph - N/A   Mostly Cloudy
5:47 PM 86.0 °F 50.0 °F 29% 30.11 in 6.0 mi SW 12.7 mph - N/A   Mostly Cloudy
6:44 PM 84.2 °F 50.0 °F 30% 29.66 in 6.0 mi WSW 11.5 mph - N/A   Mostly Cloudy
6:45 PM 82 °F 54 °F 28% 29.58 in 7 mi South 2.2 mph - -   Partly Cloudy
7:41 PM 78.8 °F 48.2 °F 34% 30.12 in 6.0 mi SW 8.1 mph - N/A   Mostly Cloudy
8:40 PM 75.2 °F 51.8 °F 44% 30.15 in 6.0 mi South 4.6 mph - N/A   Mostly Cloudy
9:40 PM 75.2 °F 50.0 °F 41% 29.65 in 6.0 mi Calm Calm - N/A   Mostly Cloudy
10:42 PM 71.6 °F 50.0 °F 46% 30.19 in 6.0 mi Calm Calm - N/A   Scattered Clouds
11:45 PM 71.6 °F 51.8 °F 50% 30.21 in 6.0 mi SW 5.8 mph - N/A   Scattered Clouds